Tracking 29487 objects as of 11-Sep-2024
HD Live streaming from Space Station
objects crossing your sky now

THORAD AGENA D DEB

Track THORAD AGENA D DEB now!
10-day predictions


NORAD ID: 4753
Int'l Code: 1970-025DB
Perigee: 956.1 km
Apogee: 968.0 km
Inclination: 100.0 °
Period: 104.2 minutes
Semi major axis: 7333 km
RCS: 0.0848 m2 (small)
Launch date: April 8, 1970
Source: United States (US)
Launch site: AIR FORCE WESTERN TEST RANGE (AFWTR)

Note: This is SATELLITE DEBRIS
Your satellite tracking list
Your tracking list is empty




NASA's NSSDC Master Catalog

Two Line Element Set (TLE):
1 04753U 70025DB  24254.67547674  .00003947  00000-0  36834-2 0  9995
2 04753  99.9805 335.5519 0008078 183.7867 176.3225 13.82533198713690
Source of the keplerian elements: AFSPC